Preview of NWS' New Version of Forecast
This preview is not operational and should not be used for support decisions.

Regional Weather Roundup (RWR)

Issued by National Weather Service (NWS)

                            
000
ASUS45 KTFX 221010
RWRMT 
MONTANA REGIONAL WEATHER ROUNDUP
NATIONAL WEATHER SERVICE GREAT FALLS MT
400 AM MDT MON APR 22 2019

NOTE: "FAIR" INDICATES FEW OR NO CLOUDS BELOW 12000 FEET WITH NO
SIGNIFICANT WEATHER AND/OR OBSTRUCTIONS TO VISIBILITY.

MTZ001>007-043-221100-
WEST OF THE DIVIDE
  
CITY           SKY/WX    TMP DP  RH WIND       PRES   REMARKS
KALISPELL      FAIR      30  27  88 CALM      30.20F                  
MISSOULA       MOCLDY    37  33  85 CALM      30.26R                  
BUTTE          FAIR      33  29  85 E6        30.25R WCI  28          
MULLAN PASS    FAIR      36  24  62 NW5       30.23S                  
ANACONDA         N/A     32  30  93 CALM      30.25R                  
DEER LODGE       N/A     30  30 100 CALM      30.28R                  
HAMILTON       CLEAR     32  30  93 SE5       30.26R                  
RONAN            N/A     39  36  87 SE6       30.19F                  
$$

MTZ008-052>055-221100-
SOUTHWEST MONTANA
  
CITY           SKY/WX    TMP DP  RH WIND       PRES   REMARKS
BOZEMAN        FAIR      33  31  92 CALM      30.25S                  
DILLON         CLOUDY    37  34  89 E6        30.22S                  
ENNIS          PTCLDY    32  28  86 S7        30.27R WCI  26          
W YELLOWSTONE  CLOUDY    34  30  86 CALM      30.18S                  
THREE FORKS      N/A     38  34  85 CALM      30.21S                  
TWIN BRIDGES     N/A     38  30  73 N6        30.18S                  
$$

MTZ009-010-012-014-046-048-049-054-221100-
EAST SLOPES AND CENTRAL MONTANA
  
CITY           SKY/WX    TMP DP  RH WIND       PRES   REMARKS
CUT BANK       FAIR      36  30  79 CALM      30.16F                  
GREAT FALLS    FAIR      40  33  76 S13       30.20S                  
MALMSTROM AFB  FAIR      36  32  85 SW6       30.22S WCI  31          
HELENA         FAIR      36  32  85 CALM      30.24S                  
AUGUSTA        FAIR      33  34 100 CALM      30.20R                  
BOWMANS CRNR   FAIR      33  31  94 S9        30.20R WCI  25          
CHOTEAU          N/A     34  32  93 S7        30.19S WCI  28          
FAIRFIELD      FAIR      35  31  86 CALM      30.20R                  
POWER          FAIR      34  30  85 SE5       30.20R                  
RAYNESFORD     FAIR      33  29  83 CALM      30.22S                  
ULM            FAIR      36  31  82 S3        30.21S                  
WHITE SULPHUR    N/A     30  28  93 SE6       30.23S WCI  24          
$$

MTZ011-013-016-021-045-047-050-051-221100-
NORTH CENTRAL MONTANA
  
CITY           SKY/WX    TMP DP  RH WIND       PRES   REMARKS
HAVRE          FAIR      36  30  79 W3        30.22R                  
LEWISTOWN      MOCLDY    33  28  81 SE5       30.24R                  
N BAR RANCH    CLOUDY    37  28  70 SW6       30.27R                  
CHINOOK          N/A     36  25  64 E6        30.23S WCI  31          
DENTON         FAIR      35  31  83 S7        30.21S WCI  30          
GEYSER         FAIR      38  29  69 S13       30.22S WCI  30          
GRASS RANGE    MOCLDY    37  31  78 W6        30.22R                  
JUDITH GAP     MOCLDY    37  31  79 S5        30.24R                  
ROY            FAIR      39  27  62 W6        30.23R                  
STANFORD       FAIR      33  29  85 S3        30.23S                  
WINIFRED       FAIR      42  30  62 S6        30.23S                  
$$

MTZ017>020-022>027-061-062-221100-
NORTHEAST MONTANA
  
CITY           SKY/WX    TMP DP  RH WIND       PRES   REMARKS
GLASGOW        FAIR      38  19  46 SE7       30.26R                  
GLENDIVE       FAIR      38  27  64 N10       30.26R WCI  31          
MALTA          CLEAR     34  25  69 CALM      30.24S                  
SIDNEY         FAIR      35  25  66 N6        30.26R WCI  30          
WOLF POINT     FAIR      32  21  64 CALM      30.27S                  
POPLAR           N/A     37  21  52 CALM      30.28R                  
$$

MTZ028>42-056>058-221100-
SOUTHCENTRAL AND SOUTHEAST MONTANA
  
CITY           SKY/WX    TMP DP  RH WIND       PRES   REMARKS
BAKER          FAIR      39  38  96 W5        30.24R                  
BILLINGS       LGT RAIN  45  42  89 S5        30.24S FOG              
LIVINGSTON     CLOUDY    39  36  89 CALM      30.24S                  
MILES CITY     MOCLDY    43  42  97 NW3       30.25R                  
BIG TIMBER     CLOUDY    39  36  87 CALM      30.26S                  
EKALAKA          N/A    N/A N/A N/A MISG      30.20R                  
FORSYTH          N/A     45  43  93 CALM      30.25R                  
HARLOWTON      MOCLDY    39  34  84 CALM      30.25R                  
LAUREL           N/A     43  43 100 CALM      30.25S                  
$$

REGIONAL REPORTS...DAKOTAS
  
CITY           SKY/WX    TMP DP  RH WIND       PRES   REMARKS
WILLISTON      FAIR      29  23  78 CALM      30.25R                  
MINOT          FAIR      38  27  64 W9        30.20R WCI  31          
DICKINSON      FAIR      31  26  82 W7        30.20R WCI  24          
BEACH          FAIR      32  32 100 MISG      30.25R                  
CROSBY         FAIR      30  23  74 SW5       30.26S                  
TIOGA          FAIR      30  25  80 CALM      30.25R                  
WATFORD CITY   FAIR      32  28  86 SW3       30.24R                  
BISMARCK       FAIR      38  33  82 W3        30.18R                  
GRAND FORKS    FAIR      37  35  92 CALM      30.15R                  
FARGO          MOCLDY    47  39  74 NE7       30.13R                  
BUFFALO SD       N/A     43  37  79 N13       30.19R                  
RAPID CITY     CLOUDY    42  38  85 NW8       30.19R                  
$$

REGIONAL REPORTS...WYOMING/IDAHO/WASHINGTON
  
CITY           SKY/WX    TMP DP  RH WIND       PRES   REMARKS
GILLETTE       CLOUDY    40  40 100 N3        30.23R                  
SHERIDAN       FOG       40  38  93 NE5       30.23  VSB 3/4          
BUFFALO WY     CLOUDY    41  37  86 S6        30.23R                  
CODY           LGT RAIN  36  34  92 NE7       30.24S WCI  30          
YELLOWSTONE LA   N/A     32  25  75 CALM      30.21R                  
IDAHO FALLS    CLOUDY    44  35  70 NE5       30.15R                  
SALMON         FAIR      38  34  85 SE3       30.23R                  
BOISE          FAIR      44  36  73 S3        30.14R                  
SPOKANE        FAIR      45  32  60 S8        30.20S                  
$$

REGIONAL REPORTS...ALBERTA
  
CITY           SKY/WX    TMP DP  RH WIND       PRES   REMARKS
CALGARY        PTCLDY    36  16  44 VRB2      30.06F                  
CARDSTON         N/A     41  30  65 SW9         N/A                   
EDMONTON       CLEAR     30  18  59 CALM      29.98F                  
FORT MCMURRAY  MOCLDY    36  25  64 E7        30.00F WCI  30          
HIGH LEVEL     CLEAR     28  21  74 E2        29.81F                  
LETHBRIDGE     CLEAR     39  28  65 SW10      30.09F                  
LLOYDMINSTER   PTCLDY    39  21  48 S15       30.06F WCI  31          
MEDICINE HAT   CLEAR     37  27  65 SW6       30.13F                  
MILK RIVER       N/A     34  28  80 S8          N/A  WCI  27          
PEACE RIVER    MOCLDY    32  21  64 VRB2      29.90F                  
PINCHER CREEK  CLEAR     39  27  60 W12G17    30.11F WCI  32          
RAYMOND          N/A     43  28  56 S12         N/A                   
$$

REGIONAL REPORTS...SASKATCHEWAN
  
CITY           SKY/WX    TMP DP  RH WIND       PRES   REMARKS
CORONACH         N/A     23  19  86 NW2         N/A                   
CYPRESS HILLS    N/A     34  16  47 S9          N/A  WCI  26          
ESTEVAN        CLEAR     28  23  80 NW7       30.23F WCI  21          
MOOSE JAW        N/A     28  18  64 S8          N/A  WCI  20          
PRINCE ALBERT  MOCLDY    28  25  86 NE2       30.24S                  
REGINA         CLEAR     25  18  74 SW7       30.25R WCI  17          
ROCKGLEN         N/A     37  18  44 SE3         N/A                   
SASKATOON      MOCLDY    36  25  64 N8        30.26R WCI  29          
SWIFT CURRENT  CLEAR     39  16  38 S15G21    30.20S WCI  31          
VAL MARIE        N/A     27  19  74 CALM        N/A                   
$$